map of COO home
COO - Airport
Location
City:  Cotonou, Littoral, Benin
Name:Cardinal Bernardin Gantin International Airport
Old (Alt.):Cadjehoun Airport
ICAO:DBBB
IATA:COO

Details
Type:Airport (Aerodrome, Airfield)
Use:Public/Civil, Military, International (customs port of entry)
Latitude:621'26"N (6.357228)
Longitude:223'04"E (2.384353)
Datum:WGS 1984
Elevation:19 ft (6 m)
Variation:2.29W (WMM2015v2 magnetic declination)
0.13 annual change
Runways:1
Longest:7874 × 148 ft (2400 × 45 m), paved

Time
Time Zone:UTC+1
Local Time:

Weather
METAR:DBBB 041400Z 22013KT 9999 FEW013 32/26 Q1009 NOSIG
TAF:DBBB 041100Z 0412/0518 22010KT 9999 SCT013
TEMPO 0414/0419 TS BKN012 FEW023CB
TEMPO 0504/0509 VRB02KT 4000 BR

Related Locations
Nearby:
Farthest:FUN: 12179 mi / 19600 km
Funafuti Atoll [Intl], TV

Find:

   beyond  
but within

Other Information
Maps:
NOTAMs:
Links:
Sources:

  
  • flag of Benin
  

Sectional Chart

Flight Planning
at skyvector.com

Satellite Image

Google Maps Satellite view

 

Copyright © 2004-2019 Karl L. Swartz. All rights reserved.
The Great Circle Mapper name and logo are trademarks of the Great Circle Mapper.
All other trademarks mentioned herein belong to their respective owners.
Please see credits for attibutions and further copyright information.

  Follow gcmap on Facebook Follow gcmap on Twitter GCmap on LinkedIn

hCard Microformat

Geo Microformat